Regional Weather Roundup
Issued by NWS

Home | Current Version | Previous Version | Text Only | Print | Product List | Glossary Off
Versions: 1 2 3 4 5 6 7 8 9 10 11 12 13 14 15 16 17 18 19 20 21 22 23 24 25 26 27 28 29 30 31 32 33 34 35 36 37 38 39 40 41 42 43 44 45 46 47 48 49 50

000
ASUS43 KOAX 242102
RWRNE

WEATHER ROUNDUP FOR NEBRASKA
NATIONAL WEATHER SERVICE OMAHA NE
300 PM CST WED DEC 24 2014

NOTES: SATELLITE DATA IS BEING USED TO AUGMENT CLOUD COVER ABOVE
       12000 FEET.
       "FAIR" INDICATES FEW OR NO CLOUDS BELOW 12,000 FEET WITH NO
       SIGNIFICANT WEATHER AND/OR OBSTRUCTIONS TO VISIBILITY.

  * THESE STATIONS DO NOT REPORT WEATHER SUCH AS RAIN...SNOW OR FOG.

NEZ001>004-019>022-054>056-242200-
NEBRASKA PANHANDLE

CITY           SKY/WX    TMP DP  RH WIND       PRES   REMARKS
SCOTTSBLUFF    MOSUNNY   42  25  50 W17G26    29.62F
ALLIANCE       MOSUNNY   40  25  55 W10       29.60F WCI  33
CHADRON        MOSUNNY   37  25  61 CALM      29.57F
SIDNEY         MOSUNNY   38  20  48 SW16      29.66F WCI  29
$$

NEZ057>060-069>072-079>082-242200-
SOUTHWEST NEBRASKA

CITY           SKY/WX    TMP DP  RH WIND       PRES   REMARKS
NORTH PLATTE   MOSUNNY   40  20  44 SW15      29.69F WCI  32
IMPERIAL       SUNNY     42  24  49 SW6       29.70F
MCCOOK         SUNNY     44  17  33 SW14      29.72F
$$

NEZ005>010-023>029-035>040-094-242200-
NORTH CENTRAL NEBRASKA

CITY           SKY/WX    TMP DP  RH WIND       PRES   REMARKS
VALENTINE      MOSUNNY   37  22  54 SW10      29.61F WCI  30
BROKEN BOW     MOSUNNY   38  23  55 SW13      29.68F WCI  30
ORD            SUNNY     37  22  54 SW9       29.69F WCI  30
$$

NEZ041-046>049-061>064-073>077-083>087-242200-
SOUTH CENTRAL NEBRASKA

CITY           SKY/WX    TMP DP  RH WIND       PRES   REMARKS
GRAND ISLAND   SUNNY     39  23  52 W10       29.74F WCI  32
HASTINGS       SUNNY     39  21  48 W10       29.74F WCI  32
KEARNEY *      SUNNY     37  23  56 S13       29.72F WCI  29
$$

NEZ011>018-030>034-042>045-242200-
NORTHEAST NEBRASKA

CITY           SKY/WX    TMP DP  RH WIND       PRES   REMARKS
NORFOLK        CLOUDY    29  25  85 W7        29.72F WCI  22
COLUMBUS *     MOSUNNY   36  25  64 W8        29.76F WCI  29
TEKAMAH        CLOUDY    30  26  85 W7        29.76F WCI  23
$$

NEZ050>053-065>068-078-088>093-242200-
SOUTHEAST NEBRASKA

CITY           SKY/WX    TMP DP  RH WIND       PRES   REMARKS
LINCOLN        CLOUDY    32  26  78 W7        29.79F WCI  26
OMAHA EPPLEY   CLOUDY    30  26  85 W8        29.79S WCI  22
FALLS CITY     CLOUDY    34  29  82 NW7       29.80S WCI  28
$$

NEZ044-045-051>053-067-242200-
OMAHA AREA

CITY           SKY/WX    TMP DP  RH WIND       PRES   REMARKS
OMAHA EPPLEY   CLOUDY    30  26  85 W8        29.79S WCI  22
OFFUTT AFB     CLOUDY    31  27  87 W8        29.77F WCI  23
$$


USA.gov is the U.S. government's official web portal to all federal, state and local government web resources and services.